Flag for Italy Weather past 2 weeks in Bologna, Italy

Now
63 °F

Fog.


Feels Like: 63 °F
Forecast: 58 / 73 °F
Wind: 3 mph from Northwest

Location: Bologna / Borgo Panigale

Current Time: Oct 2, 2014 at 1:13:35 AM

Latest Report: Oct 2, 2014 at 12:50 AM


Visibility: 1 mi

Pressure: 30.24 "Hg

Humidity: 100%

Dew point: 63 °F

Location of BolognaLocation

Historic Weather in Bologna — Graph

°F

Bologna temperature yesterday

Maximum temperature yesterday: 68 °F (at 12:20 AM)
Minimum temperature yesterday: 63 °F (at 5:20 PM)
Average temperature yesterday: 65 °F

Past Weeks' High & Low Weather Summary

 TemperatureHumidityPressure
High81 °F (Sep 22, 4:20 PM)100% (Sep 17, 5:20 AM)30.39 "Hg (Sep 17, 5:20 AM)
Low46 °F (Sep 24, 6:50 AM)35% (Sep 23, 6:20 PM)29.71 "Hg (Sep 22, 7:50 PM)
Average65 °F77%30.11 "Hg
* Reported Sep 16 11:20 PM — Oct 1 11:50 PM, Bologna, Weather by CustomWeather, © 2014

Note: Actual official high and low records may vary slightly from our data, if they occured in-between our weather recording intervals... More about our weather records

Advertising

Bologna weather history for previous 24 hours

 ConditionsComfort  
Time TempWeatherWind HumidityBarometerVisibility
11:50 PM
Oct 1
63 °FFog.2 mph100%30.24 "Hg1 mi
11:20 PM63 °FFog.2 mph100%30.24 "Hg1 mi
10:50 PM63 °FDrizzle. Fog.2 mph100%30.24 "Hg1 mi
10:20 PM63 °FRain. Fog.3 mph100%30.24 "Hg1 mi
9:50 PM63 °FFog.2 mph100%30.24 "Hg1 mi
9:20 PM63 °FFog.3 mph100%30.24 "Hg1 mi
8:50 PM63 °FFog.2 mph100%30.24 "Hg1 mi
8:20 PM63 °FLight rain. Fog.2 mph100%30.21 "Hg1 mi
7:50 PM63 °FLight rain. Fog.3 mph100%30.21 "Hg1 mi
7:20 PM63 °FLight rain. Fog.3 mph100%30.21 "Hg1 mi
6:50 PM63 °FLight rain. Fog.3 mph100%30.21 "Hg1 mi
6:20 PM63 °FLight rain. Fog.3 mph100%30.21 "Hg2 mi
5:50 PM63 °FHeavy rain. Fog.3 mph100%30.21 "Hg1 mi
5:20 PM63 °FRain. Fog.7 mph100%30.21 "Hg1 mi
4:50 PM64 °FRain. Fog.7 mph94%30.21 "Hg1 mi
4:20 PM64 °FDrizzle. Fog.8 mph94%30.21 "Hg2 mi
3:50 PM66 °FFog.7 mph88%30.21 "Hg2 mi
3:20 PM66 °FFog.5 mph88%30.21 "Hg2 mi
2:50 PM66 °FFog.3 mph88%30.21 "Hg2 mi
2:20 PM66 °FFog.3 mph88%30.21 "Hg2 mi
1:50 PM66 °FFog.3 mph88%30.24 "Hg2 mi
1:20 PM66 °FFog.2 mph88%30.24 "Hg2 mi
12:50 PM66 °FFog.2 mph88%30.24 "Hg2 mi
12:20 PM66 °FFog.5 mph88%30.24 "Hg2 mi
11:50 AM66 °FFog.3 mph88%30.24 "Hg2 mi
11:20 AM64 °FFog.3 mph94%30.24 "Hg2 mi
10:50 AM64 °FFog.3 mph94%30.24 "Hg2 mi
10:20 AM64 °FFog.5 mph94%30.24 "Hg2 mi
9:50 AM64 °FLight rain. Fog.3 mph94%30.24 "Hg2 mi
9:20 AM64 °FLight rain. Fog.3 mph94%30.24 "Hg2 mi
8:50 AM64 °FLight rain. Fog.3 mph94%30.24 "Hg2 mi
8:20 AM64 °FLight rain. Fog.6 mph94%30.24 "Hg2 mi
7:50 AM64 °FLight rain. Fog.5 mph94%30.24 "Hg3 mi
7:20 AM64 °FFog.5 mph94%30.24 "Hg3 mi
6:50 AM64 °FFog.6 mph88%30.24 "Hg3 mi
6:20 AM64 °FClear.8 mph94%30.24 "Hg4 mi
5:50 AM64 °FClear.9 mph94%30.24 "Hg4 mi
5:20 AM64 °FClear.9 mph94%30.24 "Hg4 mi
4:50 AM66 °FClear.7 mph88%30.24 "Hg4 mi
4:20 AM66 °FPassing clouds.7 mph88%30.24 "HgN/A
3:50 AM66 °FPassing clouds.8 mph88%30.24 "HgN/A
3:20 AM66 °FPassing clouds.8 mph88%30.24 "HgN/A
2:50 AM66 °FPassing clouds.8 mph83%30.24 "HgN/A
2:20 AM66 °FPassing clouds.6 mph83%30.24 "HgN/A
1:50 AM66 °FClear.5 mph83%30.24 "Hg10 mi
1:20 AM66 °FClear.5 mph83%30.24 "Hg10 mi
Weather by CustomWeather, © 2014

See weather overviewHow to use our weather pages